Volver al catálogo

KUIPER-00483

ActivoComunicacionesLEO
NORAD 68878·PAYLOAD·🇺🇸 United States

Lanzado Apr 28, 2026 desde Cape Canaveral Space Force Station

Loading…

Próximos Pases (próximas 24 horas)

TLE

ActualizadoSource: CelesTrak SupGP

Época: Sep 15, 2026, 02:32 UTC

1 68878C 26095Q   26258.10561343 -.00079819  00000+0 -10441-1 0  2589
2 68878  51.8981 215.5063 0001718 335.7582 349.3010 14.80038912    10

Sigue KUIPER-00483 en tiempo real con AllMySat

Download on the App Store